• In Deutschland
  • Länderverzeichnis
  • Für 7 Tage
  • Wassertemperatur
  • Satellitenkarten
  • Wetterkarte
  • Widgets
  • user-avatar
    Anmelden

    Stündliche Wetter Senftenberg

    Heute, 17 Oktober, Dienstag

    Zeit Temperatur Niederschläge Wind Luftdruck Luftfeuchtigkeit
    00:00 +16°C° 0 mm 3 m/S 758 mmHg 77%
    01:00 +16°C° 0 mm 3 m/S 758 mmHg 74%
    02:00 +16°C° 0 mm 3 m/S 758 mmHg 73%
    03:00 +14°C° 0 mm 3 m/S 758 mmHg 73%
    04:00 +14°C° 0 mm 3 m/S 757 mmHg 73%
    05:00 +14°C° 0 mm 3 m/S 757 mmHg 73%
    06:00 +14°C° 0 mm 3 m/S 757 mmHg 74%
    07:00 +14°C° 0 mm 2 m/S 758 mmHg 77%
    08:00 +16°C° 0 mm 2 m/S 758 mmHg 71%
    09:00 +18°C° 0 mm 3 m/S 758 mmHg 66%
    10:00 +20°C° 0 mm 3 m/S 758 mmHg 60%
    11:00 +21°C° 0 mm 3 m/S 757 mmHg 57%
    12:00 +22°C° 0 mm 3 m/S 757 mmHg 55%
    13:00 +25°C° 0 mm 2 m/S 757 mmHg 51%
    14:00 +24°C° 0 mm 2 m/S 756 mmHg 55%
    15:00 +23°C° 0 mm 2 m/S 756 mmHg 59%
    16:00 +23°C° 0 mm 2 m/S 755 mmHg 63%
    17:00 +20°C° 0 mm 2 m/S 755 mmHg 67%
    18:00 +18°C° 0 mm 2 m/S 755 mmHg 71%
    19:00 +17°C° 0 mm 2 m/S 755 mmHg 75%
    20:00 +16°C° 0 mm 2 m/S 755 mmHg 76%
    21:00 +16°C° 0 mm 2 m/S 755 mmHg 77%
    22:00 +15°C° 0 mm 2 m/S 755 mmHg 78%
    23:00 +15°C° 0 mm 2 m/S 755 mmHg 79%

    Morgen, 18 Oktober, Mittwoch

    Zeit Temperatur Niederschläge Wind Luftdruck Luftfeuchtigkeit
    00:00 +15°C° 0 mm 1 m/S 754 mmHg 81%
    01:00 +14°C° 0 mm 1 m/S 754 mmHg 82%
    02:00 +14°C° 0 mm 1 m/S 754 mmHg 84%
    03:00 +13°C° 0 mm 1 m/S 754 mmHg 85%
    04:00 +13°C° 0 mm 1 m/S 753 mmHg 86%
    05:00 +13°C° 0 mm 1 m/S 753 mmHg 87%
    06:00 +13°C° 0 mm 1 m/S 753 mmHg 87%
    07:00 +12°C° 0 mm 1 m/S 753 mmHg 88%
    08:00 +14°C° 0 mm 1 m/S 753 mmHg 81%
    09:00 +16°C° 0 mm 1 m/S 753 mmHg 74%
    10:00 +19°C° 0 mm 1 m/S 753 mmHg 67%
    11:00 +20°C° 0 mm 1 m/S 753 mmHg 64%
    12:00 +19°C° 0 mm 0 m/S 752 mmHg 60%
    13:00 +20°C° 0 mm 0 m/S 752 mmHg 57%
    14:00 +20°C° 0 mm 0 m/S 752 mmHg 60%
    15:00 +19°C° 0 mm 0 m/S 751 mmHg 63%
    16:00 +18°C° 0 mm 0 m/S 751 mmHg 66%
    17:00 +19°C° 0 mm 1 m/S 751 mmHg 71%
    18:00 +18°C° 0 mm 1 m/S 751 mmHg 75%
    19:00 +15°C° 0 mm 1 m/S 751 mmHg 80%
    20:00 +15°C° 0 mm 1 m/S 751 mmHg 81%
    21:00 +14°C° 0 mm 1 m/S 751 mmHg 83%
    22:00 +14°C° 0 mm 1 m/S 751 mmHg 85%
    23:00 +14°C° 0 mm 1 m/S 751 mmHg 86%

    übermorgen, 19 Oktober, Donnerstag

    Zeit Temperatur Niederschläge Wind Luftdruck Luftfeuchtigkeit
    00:00 +13°C° 0 mm 1 m/S 751 mmHg 87%
    01:00 +13°C° 0 mm 1 m/S 751 mmHg 88%
    02:00 +12°C° 0 mm 1 m/S 751 mmHg 89%
    03:00 +12°C° 0 mm 1 m/S 751 mmHg 89%
    04:00 +12°C° 0 mm 1 m/S 751 mmHg 90%
    05:00 +12°C° 0 mm 1 m/S 751 mmHg 90%
    06:00 +11°C° 0 mm 1 m/S 751 mmHg 90%
    07:00 +11°C° 0 mm 1 m/S 751 mmHg 90%
    08:00 +13°C° 0 mm 1 m/S 752 mmHg 82%
    09:00 +15°C° 0 mm 1 m/S 752 mmHg 74%
    10:00 +18°C° 0 mm 1 m/S 752 mmHg 66%
    11:00 +19°C° 0 mm 1 m/S 752 mmHg 62%
    12:00 +20°C° 0 mm 1 m/S 752 mmHg 58%
    13:00 +21°C° 0 mm 1 m/S 752 mmHg 54%
    14:00 +21°C° 0 mm 1 m/S 751 mmHg 57%
    15:00 +20°C° 0 mm 1 m/S 751 mmHg 60%
    16:00 +18°C° 0 mm 0 m/S 751 mmHg 63%
    17:00 +18°C° 0 mm 1 m/S 751 mmHg 67%
    18:00 +16°C° 0 mm 1 m/S 752 mmHg 71%
    19:00 +15°C° 0 mm 1 m/S 752 mmHg 76%
    20:00 +14°C° 0 mm 2 m/S 752 mmHg 78%
    21:00 +14°C° 0 mm 2 m/S 752 mmHg 80%
    22:00 +13°C° 0 mm 2 m/S 752 mmHg 82%
    23:00 +13°C° 0 mm 2 m/S 752 mmHg 83%

    20 Oktober, Freitag

    Zeit Temperatur Niederschläge Wind Luftdruck Luftfeuchtigkeit
    00:00 +13°C° 0 mm 2 m/S 752 mmHg 84%
    01:00 +13°C° 0 mm 2 m/S 752 mmHg 84%
    02:00 +13°C° 0 mm 2 m/S 752 mmHg 85%
    03:00 +12°C° 0 mm 2 m/S 752 mmHg 85%
    04:00 +12°C° 0 mm 2 m/S 752 mmHg 85%
    05:00 +12°C° 0 mm 2 m/S 752 mmHg 86%
    06:00 +12°C° 0 mm 2 m/S 753 mmHg 86%
    07:00 +12°C° 0 mm 2 m/S 753 mmHg 87%
    08:00 +14°C° 0 mm 2 m/S 753 mmHg 80%
    09:00 +15°C° 0 mm 2 m/S 753 mmHg 73%
    10:00 +17°C° 0 mm 2 m/S 753 mmHg 67%
    11:00 +18°C° 0 mm 2 m/S 753 mmHg 63%
    12:00 +19°C° 0 mm 2 m/S 753 mmHg 59%
    13:00 +20°C° 0 mm 2 m/S 753 mmHg 55%
    14:00 +20°C° 0 mm 2 m/S 752 mmHg 59%
    15:00 +19°C° 0 mm 2 m/S 752 mmHg 63%
    16:00 +18°C° 0 mm 2 m/S 752 mmHg 67%
    17:00 +17°C° 0 mm 2 m/S 752 mmHg 70%
    18:00 +16°C° 0 mm 2 m/S 753 mmHg 73%
    19:00 +15°C° 0 mm 2 m/S 753 mmHg 76%
    20:00 +15°C° 0 mm 2 m/S 753 mmHg 76%
    21:00 +15°C° 0 mm 2 m/S 753 mmHg 75%
    22:00 +15°C° 0 mm 2 m/S 753 mmHg 75%
    23:00 +15°C° 0 mm 2 m/S 753 mmHg 76%

    21 Oktober, Samstag

    Zeit Temperatur Niederschläge Wind Luftdruck Luftfeuchtigkeit
    00:00 +14°C° 0 mm 2 m/S 753 mmHg 77%
    01:00 +14°C° 0 mm 2 m/S 753 mmHg 78%
    02:00 +13°C° 0 mm 2 m/S 753 mmHg 79%
    03:00 +13°C° 0 mm 2 m/S 753 mmHg 80%
    04:00 +13°C° 0 mm 2 m/S 753 mmHg 81%
    05:00 +13°C° 0 mm 2 m/S 753 mmHg 81%
    06:00 +13°C° 0 mm 2 m/S 753 mmHg 81%
    07:00 +13°C° 0 mm 2 m/S 753 mmHg 80%
    08:00 +14°C° 0 mm 2 m/S 753 mmHg 77%
    09:00 +15°C° 0 mm 2 m/S 753 mmHg 73%
    10:00 +16°C° 0 mm 2 m/S 753 mmHg 70%
    11:00 +17°C° 0 mm 2 m/S 753 mmHg 66%
    12:00 +19°C° 0 mm 3 m/S 753 mmHg 63%
    13:00 +20°C° 0 mm 3 m/S 752 mmHg 60%
    14:00 +19°C° 0 mm 3 m/S 752 mmHg 63%
    15:00 +19°C° 0 mm 2 m/S 752 mmHg 65%
    16:00 +19°C° 0 mm 2 m/S 752 mmHg 68%
    17:00 +18°C° 0 mm 2 m/S 752 mmHg 70%
    18:00 +17°C° 0 mm 2 m/S 752 mmHg 71%
    19:00 +16°C° 0 mm 3 m/S 752 mmHg 73%
    20:00 +16°C° 0,2 mm 3 m/S 752 mmHg 76%
    21:00 +16°C° 0,2 mm 2 m/S 752 mmHg 78%
    22:00 +15°C° 0,2 mm 2 m/S 752 mmHg 81%
    23:00 +15°C° 0,7 mm 2 m/S 752 mmHg 84%

    22 Oktober, Sonntag

    Zeit Temperatur Niederschläge Wind Luftdruck Luftfeuchtigkeit
    00:00 +14°C° 0,7 mm 3 m/S 752 mmHg 87%
    01:00 +14°C° 0,7 mm 3 m/S 753 mmHg 90%
    02:00 +15°C° 0,3 mm 2 m/S 753 mmHg 90%
    03:00 +15°C° 0,3 mm 2 m/S 752 mmHg 91%
    04:00 +14°C° 0,3 mm 2 m/S 752 mmHg 91%
    05:00 +14°C° 0,1 mm 2 m/S 753 mmHg 91%
    06:00 +14°C° 0,1 mm 2 m/S 753 mmHg 90%
    07:00 +14°C° 0,1 mm 2 m/S 753 mmHg 90%
    08:00 +13°C° 0,2 mm 3 m/S 753 mmHg 88%
    09:00 +13°C° 0,2 mm 3 m/S 753 mmHg 86%
    10:00 +13°C° 0,2 mm 3 m/S 753 mmHg 85%
    11:00 +13°C° 0,4 mm 3 m/S 753 mmHg 84%
    12:00 +13°C° 0,4 mm 3 m/S 753 mmHg 82%
    13:00 +13°C° 0,4 mm 3 m/S 753 mmHg 81%
    14:00 +12°C° 0,3 mm 3 m/S 753 mmHg 81%
    15:00 +12°C° 0,3 mm 3 m/S 753 mmHg 81%
    16:00 +12°C° 0,3 mm 3 m/S 753 mmHg 81%
    17:00 +11°C° 0,1 mm 3 m/S 754 mmHg 81%
    18:00 +11°C° 0,1 mm 3 m/S 754 mmHg 81%
    19:00 +10°C° 0,1 mm 3 m/S 754 mmHg 81%
    20:00 +10°C° 0 mm 3 m/S 755 mmHg 81%
    21:00 +10°C° 0 mm 3 m/S 755 mmHg 81%
    22:00 +8°C° 0 mm 4 m/S 755 mmHg 81%
    23:00 +8°C° 0 mm 4 m/S 755 mmHg 83%
    Mehr zeigen